Regional Weather Roundup
Issued by NWS

Home | Current Version | Previous Version | Text Only | Print | Product List | Glossary On
Versions: 1 2 3 4 5 6 7 8 9 10 11 12 13 14 15 16 17 18 19 20 21 22 23 24 25 26 27 28 29 30 31 32 33 34 35 36 37 38 39 40 41 42 43 44 45 46 47 48 49 50
000
ASUS43 KMPX 230801
RWRMN
WEATHER ROUNDUP FOR MINNESOTA
NATIONAL WEATHER SERVICE TWIN CITIES/CHANHASSEN MN
300 AM CDT SAT MAY 23 2015


NOTE: "FAIR" INDICATES FEW OR NO CLOUDS BELOW 12,000 FEET WITH NO
SIGNIFICANT WEATHER AND/OR OBSTRUCTIONS TO VISIBILITY. N/A MEANS
CURRENT SKY AND/OR WEATHER CONDITIONS ARE NOT AVAILABLE.

MNZ060>063-068>070-230900-
   Twin Cities Metro

CITY           SKY/WX    TMP DP  RH WIND       PRES   REMARKS
TWIN CITIES    CLEAR     57  38  48 CALM      30.21R
ST PAUL        CLEAR     53  45  74 E3        30.22R
CRYSTAL        CLEAR     49  43  80 CALM      30.20R
BLAINE         CLEAR     50  41  71 CALM      30.21R
LAKEVILLE      PTCLDY    48  39  71 CALM      30.21S
EDEN PRAIRIE   CLEAR     49  39  68 SW8G16    30.21R
SOUTH ST PAUL  CLEAR     51  44  78 CALM      30.21R
LAKE ELMO      FAIR      45  43  93 CALM      30.22S
$$
MNZ001>005-007-008-013>017-022>024-027-028-230900-
   Northwest Minnesota

CITY           SKY/WX    TMP DP  RH WIND       PRES   REMARKS
BEMIDJI        CLEAR     44  38  79 CALM      30.17S
HALLOCK        CLEAR     48  43  81 S5        30.12S
ROSEAU         PTCLDY    59  43  55 SW7       30.13R
WARROAD        PTCLDY    59  43  55 SW8       30.13R
THIEF RVR FALL CLEAR     54  37  54 S7        30.15S
CROOKSTON      CLEAR     50  39  66 SE8       30.15S
FOSSTON        CLEAR     46  39  76 CALM      30.17S
DETROIT LAKES  CLEAR     50  41  71 CALM      30.19R
MOORHEAD       CLEAR     55  41  58 S6        30.17R
PARK RAPIDS    CLEAR     48  39  71 CALM      30.18S
MAHNOMEN       FAIR      54  39  57 S6        30.16S
$$
MNZ006-009>011-018-025>026-230900-
   North Central Minnesota

CITY           SKY/WX    TMP DP  RH WIND       PRES   REMARKS
BAUDETTE       PTCLDY    56  39  53 SW3       30.12R
FLAG ISLAND      N/A     61  41  48 W15       30.08
INTL FALLS     CLEAR     48  38  68 SW6       30.13R
WASKISH        CLEAR     57  43  58 CALM      30.15R
BIG FORK       CLEAR     45  41  87 CALM      30.17R
LONGVILLE      CLEAR     41  39  93 CALM      30.19R
GRAND RAPIDS   CLEAR     48  37  66 CALM      30.19R
CRANE LAKE     PTCLDY    43  39  87 CALM      30.16R
ORR            CLEAR     52  36  54 CALM      30.13R
COOK           CLEAR     55  37  50 SW3       30.16S
WALKER         FAIR      50  37  61 CALM      30.18R
$$
MNZ012-019>021-037-230900-
   Northeast Minnesota

CITY           SKY/WX    TMP DP  RH WIND       PRES   REMARKS
DULUTH         CLEAR     56  35  45 W10       30.19R
ELY            CLEAR     54  36  50 SW5       30.15S
HIBBING        CLEAR     38  35  89 CALM      30.17S
EVELETH        CLEAR     41  37  87 CALM      30.18S
DULUTH HARBOR  CLEAR     43  37  81 S6        30.19S
TWO HARBORS    CLEAR     45  37  76 W3        30.16S
SILVER BAY     CLEAR     36  34  93 CALM      30.15S
GRAND MARAIS     N/A     39  32  76 W5        30.14S
G MARAIS ARPRT CLEAR     48  28  46 W6        30.15S
$$
MNZ029>031-032-039>041-046>048-054>057-064-230900-
   West Central Minnesota

CITY           SKY/WX    TMP DP  RH WIND       PRES   REMARKS
FERGUS FALLS   CLEAR     52  41  66 W6        30.19R
WHEATON        CLEAR     52  43  71 CALM      30.21R
MORRIS         CLEAR     52  45  76 CALM      30.20R
ALEXANDRIA     CLEAR     52  42  69 SW9       30.21R
ELBOW LAKE     FAIR      51  43  75 SW7       30.19S
WADENA         CLEAR     52  39  62 S7        30.18S
GLENWOOD       CLEAR     54  45  71 W7        30.21S
APPLETON       CLEAR     52  45  76 CALM      30.20S
BENSON         CLEAR     52  45  76 CALM      30.21S
ORTONVILLE     CLEAR     54  41  62 CALM      30.19S
MADISON        PTCLDY    52  43  71 CALM      30.20S
WILLMAR        FAIR      55  45  67 CALM      30.23S
$$
MNZ033>034-036-042>043-049>051-058-059-230900-
   Central Minnesota

CITY           SKY/WX    TMP DP  RH WIND       PRES   REMARKS
ST CLOUD       CLEAR     45  42  89 SW3       30.21R
SAUK CENTRE    FAIR      51  40  66 CALM      30.21R
PAYNESVILLE    CLEAR     49  40  71 S6        30.22R
AITKIN         CLEAR     43  37  81 CALM      30.18S
PINE RIVER     CLEAR     43  39  87 CALM      30.22S
BRAINERD       CLEAR     44  40  85 CALM      30.20R
STAPLES        CLEAR     46  39  76 CALM      30.19S
LONG PRAIRIE   FAIR      50  41  71 CALM      30.21R
LITTLE FALLS   CLEAR     45  37  76 CALM      30.20R
LITCHFIELD     PTCLDY    55  43  62 W3        30.22R
BUFFALO        CLEAR     52  43  71 CALM      30.23R
MAPLE LAKE     CLEAR     56  43  62 CALM      30.22R
$$
MNZ037-044-045-052-053-230900-
   East Central Minnesota

CITY           SKY/WX    TMP DP  RH WIND       PRES   REMARKS
PRINCETON      CLEAR     46  43  87 CALM      30.21R
MORA           CLEAR     39  37  93 CALM      30.22S
CAMBRIDGE      CLEAR     50  39  66 CALM      30.19S
RUSH CITY      CLEAR     45  40  80 CALM      30.21R
MOOSE LAKE     CLEAR     39  37  93 CALM      30.19R
HINCKLEY       FAIR      41  41 100 CALM      30.21R
CLOQUET        CLEAR     55  34  44 SW6       30.19S
MCGREGOR       CLEAR     45  41  87 CALM      30.20S
$$
MNZ071>073-080-081-089-090-097-098-230900-
   Southwest Minnesota

CITY           SKY/WX    TMP DP  RH WIND       PRES   REMARKS
MONTEVIDEO     PTCLDY    54  41  62 CALM      30.22R
GRANITE FALLS  PTCLDY    50  42  73 CALM      30.23R
CANBY          PTCLDY    50  43  75 CALM      30.22R
MARSHALL       PTCLDY    54  43  66 CALM      30.21R
REDWOOD FALLS  PTCLDY    55  43  63 CALM      30.21S
OLIVIA         PTCLDY    52  41  66 CALM      30.21S
WINDOM         CLOUDY    54  45  71 CALM      30.22S
WORTHINGTON    CLOUDY    54  43  66 SW5       30.24R
JACKSON        MOCLDY    55  45  67 CALM      30.23S
TRACY          MOCLDY    55  45  70 CALM      30.22R
SLAYTON        CLOUDY    54  45  72 CALM      30.23R
$$
MNZ065>067-074>077-082>085-091>093-230900-
   South Central Minnesota

CITY           SKY/WX    TMP DP  RH WIND       PRES   REMARKS
MANKATO        MOCLDY    57  41  54 NW6       30.22S
NEW ULM        MOCLDY    54  43  66 NW3       30.22R
ST JAMES       MOCLDY    55  45  67 CALM      30.23S
FAIRMONT       CLOUDY    57  41  54 CALM      30.22S
GLENCOE        PTCLDY    57  44  60 W5        30.21R
FARIBAULT      PTCLDY    57  39  51 CALM      30.22S
OWATONNA       MOCLDY    55  39  54 S5        30.22S
WASECA         MOCLDY    54  43  66 W5        30.23S
ALBERT LEA     CLOUDY    59  43  55 NW5       30.23R
$$
MNZ078>079-086>088-094>096-230900-
   Southeast Minnesota

CITY           SKY/WX    TMP DP  RH WIND       PRES   REMARKS
ROCHESTER      PTCLDY    53  40  61 S6        30.24R
RED WING       CLEAR     45  43  93 CALM      30.21S
STANTON        PTCLDY    50  40  68 CALM      30.20S
DODGE CENTER   PTCLDY    54  43  66 SW6       30.23R
WINONA         CLEAR     48  46  93 CALM      30.24R
AUSTIN         CLOUDY    55  41  58 NW3       30.22S
PRESTON        MOCLDY    54  40  60 SE3       30.23R
$$
ABBREVIATIONS USED IN REMARKS
   TC - TEMPERATURES IN CELSIUS
  WCI - WIND CHILL INDEX
   HX - HEAT INDEX
  VSB - VISIBILITY
$$


USA.gov is the U.S. government's official web portal to all federal, state and local government web resources and services.